Weather History for KEBG - March, 2012

Change the Weather History Date:

Friday, March 2, 2012

  Actual Average (KMFE) Record (KMFE)
Temperature  
Mean Temperature 80 °F 68 °F  
Max Temperature 89 °F 78 °F 99 °F (1999)
Min Temperature 71 °F 57 °F 32 °F (1917)
Degree Days  
Heating Degree Days 0 2  
Month to date heating degree days 4  
Since 1 July heating degree days 537  
Cooling Degree Days 15 5  
Month to date cooling degree days 10  
Year to date cooling degree days 169  
Growing Degree Days 30 (Base 50)    
Moisture  
Dew Point 69 °F    
Average Humidity 78    
Maximum Humidity 88    
Minimum Humidity 47    
Precipitation  
Precipitation 0.00 in 0.04 in 0.42 in (2003)
Month to date precipitation 0.08  
Year to date precipitation 2.24  
Sea Level Pressure  
Sea Level Pressure 29.67 in    
Wind  
Wind Speed 12 mph (SSE)    
Max Wind Speed 16 mph    
Max Gust Speed 25 mph    
Visibility 6 miles    
Events      
T = Trace of Precipitation, MM = Missing Value Source: NWS Daily Summary

Daily Weather History Graph

Daily Weather History Graph

Search for Another Location

Airport or City:

Trip Planner

Search our weather history database for the weather conditions in past years. The results will help you decide how hot, cold, wet, or windy it might be!

Date:

Astronomy

Mar. 02, 2012 Rise Set
Actual Time 6:54 AM CST 6:34 PM CST
Civil Twilight 6:31 AM CST 6:57 PM CST
Nautical Twilight 6:04 AM CST 7:24 PM CST
Astronomical Twilight 5:37 AM CST 7:51 PM CST
Moon 1:12 PM CST (3/2) 2:20 AM CST (3/2)
Length of Visible Light 12h 26m
Length of Day
11h 40m
Waxing Gibbous, 66% of the Moon is Illuminated
Mar 2
Waxing Gibbous
Mar 8
Full
Mar 14
Last Quarter
Mar 22
New
Mar 30
First Quarter

Hourly Weather History & Observations

Time (CST) Temp. Heat Index Dew Point Humidity Pressure Visibility Wind Dir Wind Speed Gust Speed Precip Events Conditions
12:15 AM 73.9 °F - 68.9 °F 84% 29.72 in 7.0 mi SSE 12.7 mph 18.4 mph N/A   Clear
12:35 AM 73.6 °F - 68.9 °F 85% 29.71 in 7.0 mi SSE 11.5 mph 17.3 mph N/A   Clear
12:55 AM 73.4 °F - 68.5 °F 85% 29.70 in 7.0 mi SSE 12.7 mph - N/A   Clear
1:15 AM 73.4 °F - 68.4 °F 84% 29.70 in 7.0 mi South 11.5 mph 17.3 mph N/A   Clear
1:55 AM 72.9 °F - 68.0 °F 85% 29.70 in 7.0 mi South 12.7 mph - N/A   Clear
2:15 AM 72.7 °F - 68.0 °F 85% 29.70 in 5.0 mi South 10.4 mph - N/A   Haze
2:55 AM 72.1 °F - 67.8 °F 86% 29.69 in 7.0 mi South 11.5 mph - N/A   Clear
3:15 AM 72.0 °F - 67.6 °F 86% 29.68 in 5.0 mi South 10.4 mph - N/A   Clear
3:35 AM 71.8 °F - 67.8 °F 87% 29.67 in 7.0 mi South 11.5 mph - N/A   Clear
3:55 AM 71.6 °F - 67.8 °F 88% 29.66 in 7.0 mi South 12.7 mph 18.4 mph N/A   Clear
4:35 AM 71.6 °F - 68.0 °F 88% 29.66 in 7.0 mi South 12.7 mph 20.7 mph N/A   Mostly Cloudy
4:55 AM 71.8 °F - 67.6 °F 87% 29.66 in 5.0 mi South 13.8 mph 19.6 mph N/A   Mostly Cloudy
5:15 AM 71.8 °F - 67.5 °F 86% 29.67 in 7.0 mi South 13.8 mph 17.3 mph N/A   Mostly Cloudy
5:35 AM 71.8 °F - 67.5 °F 86% 29.67 in 7.0 mi South 12.7 mph 19.6 mph N/A   Mostly Cloudy
5:55 AM 71.8 °F - 67.5 °F 86% 29.66 in 7.0 mi South 16.1 mph - N/A   Scattered Clouds
6:15 AM 72.1 °F - 67.6 °F 86% 29.65 in 7.0 mi South 13.8 mph 25.3 mph N/A   Scattered Clouds
6:35 AM 72.1 °F - 67.5 °F 85% 29.65 in 7.0 mi SSE 16.1 mph 25.3 mph N/A   Scattered Clouds
6:55 AM 72.0 °F - 67.5 °F 86% 29.67 in 7.0 mi South 12.7 mph 17.3 mph N/A   Scattered Clouds
7:15 AM 71.8 °F - 67.5 °F 86% 29.67 in 5.0 mi South 13.8 mph 17.3 mph N/A   Haze
7:35 AM 72.0 °F - 67.5 °F 86% 29.68 in 5.0 mi South 9.2 mph - N/A   Scattered Clouds
7:55 AM 72.5 °F - 67.8 °F 85% 29.68 in 5.0 mi South 11.5 mph - N/A   Haze
8:15 AM 73.2 °F - 68.0 °F 84% 29.69 in 5.0 mi South 10.4 mph - N/A   Haze
8:35 AM 73.9 °F - 68.0 °F 82% 29.70 in 5.0 mi South 10.4 mph 16.1 mph N/A   Haze
8:55 AM 74.8 °F - 68.2 °F 80% 29.70 in 5.0 mi South 13.8 mph 18.4 mph N/A   Haze
9:15 AM 75.4 °F - 68.2 °F 78% 29.70 in 5.0 mi South 15.0 mph - N/A   Haze
9:35 AM 76.3 °F - 68.5 °F 77% 29.71 in 5.0 mi South 13.8 mph 18.4 mph N/A   Haze
9:55 AM 77.5 °F - 68.5 °F 74% 29.72 in 5.0 mi South 13.8 mph - N/A   Haze
10:15 AM 77.7 °F - 68.2 °F 72% 29.72 in 7.0 mi South 12.7 mph 17.3 mph N/A   Clear
10:35 AM 78.8 °F - 68.2 °F 70% 29.72 in 5.0 mi South 12.7 mph 18.4 mph N/A   Haze
11:15 AM 81.0 °F 83.8 °F 68.4 °F 65% 29.70 in 5.0 mi South 16.1 mph - N/A   Haze
11:55 AM 82.4 °F 85.4 °F 68.4 °F 62% 29.69 in 5.0 mi South 15.0 mph - N/A   Haze
12:15 PM 82.9 °F 86.3 °F 68.7 °F 62% 29.68 in 7.0 mi South 13.8 mph - N/A   Mostly Cloudy
12:35 PM 84.0 °F 87.8 °F 69.1 °F 61% 29.67 in 5.0 mi South 12.7 mph 17.3 mph N/A   Haze
3:15 PM 88.9 °F 91.4 °F 66.4 °F 47% 29.61 in 5.0 mi Calm Calm - N/A   Haze
3:35 PM 89.1 °F 91.7 °F 66.6 °F 47% 29.61 in 7.0 mi North 5.8 mph - N/A   Clear
5:55 PM 88.2 °F 90.9 °F 66.7 °F 49% 29.60 in 7.0 mi ENE 6.9 mph - N/A   Clear
6:15 PM 86.5 °F 89.3 °F 67.1 °F 52% 29.61 in 7.0 mi ENE 5.8 mph - N/A   Clear
6:35 PM 84.7 °F 87.6 °F 67.5 °F 56% 29.61 in 5.0 mi East 5.8 mph - N/A   Haze
6:55 PM 84.4 °F 87.3 °F 67.8 °F 57% 29.61 in 7.0 mi East 10.4 mph - N/A   Clear
7:15 PM 83.3 °F 87.4 °F 70.2 °F 64% 29.62 in 7.0 mi ESE 12.7 mph - N/A   Clear
7:35 PM 81.5 °F 85.5 °F 70.7 °F 70% 29.63 in 7.0 mi SE 9.2 mph - N/A   Clear
7:55 PM 80.1 °F 83.4 °F 70.7 °F 73% 29.64 in 7.0 mi SE 10.4 mph - N/A   Clear
8:15 PM 78.4 °F - 70.7 °F 77% 29.65 in 7.0 mi SE 11.5 mph - N/A   Clear
8:35 PM 77.5 °F - 70.7 °F 79% 29.66 in 5.0 mi SE 10.4 mph - N/A   Haze
8:55 PM 76.8 °F - 70.7 °F 81% 29.67 in 5.0 mi SE 11.5 mph - N/A   Haze
9:15 PM 75.9 °F - 70.7 °F 84% 29.67 in 5.0 mi SE 6.9 mph - N/A   Haze
9:35 PM 75.0 °F - 70.3 °F 85% 29.67 in 5.0 mi SSE 8.1 mph - N/A   Haze
9:55 PM 74.7 °F - 70.3 °F 86% 29.68 in 5.0 mi SSE 8.1 mph - N/A   Haze
10:15 PM 74.7 °F - 70.7 °F 87% 29.68 in 5.0 mi SSE 9.2 mph - N/A   Overcast
10:35 PM 75.0 °F - 70.7 °F 86% 29.68 in 5.0 mi SSE 9.2 mph - N/A   Overcast
10:55 PM 75.2 °F - 70.7 °F 86% 29.68 in 5.0 mi SSE 9.2 mph - N/A   Overcast
11:15 PM 75.2 °F - 70.5 °F 85% 29.69 in 5.0 mi SSE 8.1 mph - N/A   Overcast
11:35 PM 75.2 °F - 70.7 °F 86% 29.68 in 5.0 mi SSE 4.6 mph - N/A   Overcast
11:55 PM 75.2 °F - 70.5 °F 85% 29.68 in 5.0 mi SSE 4.6 mph - N/A   Overcast